Weather in Troyelga

Russia / Perm Krai     57°27′56″N   56°32′13″E
temp.,
°C
wind,
m/s
gust,
m/s
humid.,
%
clouds,
%
prec.,
mm/h
press.,
hPa
HPBL,
m
25 february, thu
thu2523:00−26nnw469839 0.0 1031105
02:00−27nnw23980 0.0 103130
05:00−28nw22960 0.0 103119
08:00−28wnw11970 0.0 103119
11:00−22ssw11890 0.0 1030187
14:00−18s238249 0.0 1029433
17:00−16ssw248574 0.0 1029593
20:00−22ssw239465 0.0 102823
26 february, fri
fri2623:00−26s339432 0.0 102929
02:00−28sse33970 0.0 102736
05:00−29sse23970 0.0 102736
08:00−29sse239652 0.0 102638
11:00−24sse369147 0.0 1026247
14:00−18sse469149 0.0 1023402
17:00−16sse479075 0.0 1022559
20:00−20se349798 0.0 102053
27 february, sat
sat2723:00−21sse339586 0.0 101945
02:00−22se339114 0.0 101742
05:00−23ese349523 0.0 101474
08:00−22ese489498 0.0 1012188
11:00−19ese599199 0.0 1010354
14:00−14ese61190100 0.0 1008550
17:00−12ese6994100 0.8 1008761
20:00−16e61195100 0.6 1008543
28 february, sun
sun2823:00−18e51095100 0.9 1008484
02:00−18e51096100 0.1 1008415
05:00−18e51096100 0.4 1008380
08:00−18ene5996100 0.2 1008378
11:00−16ene5894100 0.4 1009418
14:00−15ene5793100 0.3 1009459
17:00−14ne5794100 0.6 1010467
20:00−15ne4896100 0.4 1011352
1 march, mon
mon123:00−17ene4896100 0.6 1013348
02:00−18ne4896100 0.3 1014308
05:00−19ne4797100 0.5 1015271
08:00−20nne369895 0.1 1017180
11:00−18nne359382 0.1 1017255
14:00−13nne348444 0.0 1017391
17:00−12nnw358967 0.0 1017418
20:00−17w229529 0.0 101720